Starlink 30145

operational
NORAD ID: 57496 Int'l Des: 2023-113 Owner: SPXS Country: US Constellation: starlink
LEOCIRCULAR

About Starlink 30145

Description loading...

Live Position

Loading 3D Globe...

Upcoming Passes

Altitude History

Altitude vs Time

uPlot chart will show altitude changes over time

Two-Line Element Set

1 57496U 23113B 25261.28066888 -.00000294 00000-0 -66618-5 0 9992
2 57496 43.0028 234.3133 0001172 272.5324 87.5385 15.02536946117618
Epoch: Sep 18, 2025 • Age: 7 hours

Current Status

Altitude 563.0 km
Velocity 7.59 km/s
Sub-Earth Point 43.00°N, 116.5°E
Launch Date Aug 7, 2023
Age 2.1 years
Type internet

Technical Details

Classification Payload
Mass 730.00 kg
Dry Mass 700.00 kg
Total Mass 730.00 kg
Length 0.30 m
Diameter 4.10 m
Span 29.00 m
Shape Box + pan
Manufacturer SPXS
Bus Type Starlink V2M
Phase Status In Orbit
Owner/State SPXS/US

Large Constellations

Loading constellations...